Location: Watson Lake
(60.1170°N, 128.8000°W)
Time: 09:19:46
(UTC-08:00)

Daily predictions for brighter satellites

Satellite Brightness Start Highest point End
(mag) Time Altitude Azimuth Time Altitude Azimuth Time Altitude Azimuth
COSMOS 2428 2.8 18:21:43 10° NW 18:27:26 68° NE 18:33:07 10° SE
Cosmos 2237 4.3 18:21:56 10° NW 18:27:43 78° NE 18:33:28 10° SE
Cosmos 2333 4.3 18:23:00 10° NW 18:28:41 65° NE 18:34:24 10° SE
Meteor 2-4 Rocket 4.0 18:25:00 10° NNW 18:30:27 45° ENE 18:35:44 10° SE
Cosmos 2237 Rocket 2.7 18:25:39 10° NW 18:31:06 43° NNE 18:36:33 10° ESE
H-2A R/B 3.6 18:28:10 10° ESE 18:31:27 29° ENE 18:34:47 10° N
Cosmos 1536 Rocket 3.6 18:27:01 10° N 18:31:29 69° ENE 18:35:57 10° SSE
Cosmos 1633 4.0 18:31:52 10° SE 18:34:32 19° E 18:37:11 10° NE
NOSS 2-2 (C) 4.5 18:32:24 10° SSW 18:36:22 35° SE 18:41:10 10° ENE
METEOR-M 4.1 18:31:46 10° SSE 18:37:07 81° ENE 18:42:31 10° NNW
OPS 6432 4.3 18:34:20 10° SW 18:37:20 60° SE 18:40:28 10° ENE
Cosmos 1733 Rocket 4.4 18:33:33 10° SW 18:37:47 43° WNW 18:42:02 10° N
Cosmos 1825 3.8 18:34:46 10° SW 18:38:22 37° WNW 18:41:58 10° N
Cosmos 1315 Rocket 3.8 18:39:03 10° SW 18:42:53 50° WNW 18:46:45 10° N
NOSS 0 Rocket 4.1 18:38:45 10° NW 18:44:54 61° NE 18:50:59 10° ESE
RESURS DK-1 2.7 18:40:54 10° SW 18:45:03 69° NW 18:49:14 10° NE
Cosmos 2360 Rocket 2.7 18:40:45 10° NW 18:46:22 66° WSW 18:51:59 10° SSE
Cosmos 2219 Rocket 2.3 18:42:33 10° NW 18:48:08 61° NE 18:53:41 10° ESE
Meteor 1-25 Rocket 4.3 18:43:08 10° S 18:48:41 60° E 18:54:20 10° NNE
Cosmos 1763 Rocket 4.2 18:45:04 10° NNW 18:49:43 34° NE 18:54:24 10° ESE
Cosmos 407 Rocket 4.0 18:47:00 10° S 18:51:55 40° ESE 18:56:54 10° NE
Cosmos 1570 Rocket 4.0 18:48:29 10° NNW 18:53:46 84° ENE 18:59:01 10° SE
Cosmos 1908 Rocket 4.4 18:50:31 10° SSW 18:54:51 57° WNW 18:59:16 10° N
Cosmos 1782 Rocket 3.9 18:55:57 10° SSW 19:00:25 75° WNW 19:04:57 10° NNE
SL-16 R/B 2.9 18:59:13 10° NW 19:04:36 40° NNE 19:09:14 13° E
Cosmos 1602 4.4 19:01:14 10° SSE 19:04:45 33° E 19:08:19 10° NNE
COSMO-SKYMED 1 2.5 19:00:51 10° NNE 19:05:13 76° ESE 19:09:35 10° SSW
Cosmos 371 Rocket 4.3 19:01:13 10° NNW 19:05:35 31° NE 19:09:09 14° E
Cosmos 1437 4.2 19:02:58 10° N 19:05:36 21° ENE 19:07:14 15° E
Cosmos 807 4.5 19:05:32 10° NNW 19:08:50 81° ENE 19:12:49 10° SSE
Meteor 1-11 Rocket 4.2 19:03:44 10° SSE 19:09:09 40° E 19:14:41 10° NNE
Resurs 01 Rocket 1.6 19:05:08 10° SSE 19:09:31 71° ENE 19:13:57 10° NNW
Cosmos 1300 Rocket 4.0 19:05:52 10° SSE 19:09:58 38° E 19:14:07 10° NNE
Thor Agena Rocket 3.6 19:06:00 10° NNE 19:11:07 80° WNW 19:16:10 10° SSW
Cosmos 1140 Rocket 4.3 19:06:54 10° SSE 19:11:16 29° ESE 19:15:41 10° NE
Cosmos 1340 3.3 19:07:42 10° NNW 19:11:29 61° WSW 19:15:14 10° S
Cosmos 468 Rocket 4.1 19:08:45 10° NNW 19:13:56 61° NE 19:19:09 10° SE
FREGAT/IRIS 3.3 19:11:59 10° S 19:15:03 58° WSW 19:18:09 10° NNW
Spot 1 4.1 19:12:23 10° SE 19:16:24 55° ENE 19:20:35 10° NNW
ALOS 2.3 19:14:48 10° SSE 19:19:30 85° WSW 19:24:14 10° NNW
Cosmos 1190 Rocket 4.0 19:14:25 10° SSW 19:19:33 64° ESE 19:24:44 10° NE
Cosmos 2208 Rocket 4.3 19:15:22 10° NW 19:20:51 75° WSW 19:26:17 10° SSE
Cosmos 2333 Rocket 2.2 19:16:31 10° NW 19:22:18 77° NE 19:28:04 10° SE
Cosmos 2181 Rocket 4.2 19:16:23 10° NNW 19:22:37 80° W 19:28:54 10° S
Helios 1A 3.0 19:19:37 10° SE 19:23:43 58° ENE 19:27:50 10° NNW
Meteor 1-28 Rocket 3.3 19:21:27 10° NNE 19:25:17 84° WNW 19:29:07 10° SSW
Okean 2 Rocket 3.7 19:20:57 10° SSW 19:25:21 60° WNW 19:29:45 10° N
Helios 1B rocket 3.7 19:22:47 10° NE 19:25:56 20° E 19:27:40 16° ESE
Resurs 1-3 3.5 19:22:41 10° SSE 19:27:05 83° ENE 19:31:31 10° NNW
Spot 2 Rocket 3.5 19:22:07 10° SSE 19:27:13 89° WSW 19:32:21 10° NNW
Cosmos 2082 Rocket 3.1 19:21:59 10° WSW 19:27:32 49° NW 19:33:08 10° NE
Okean 2 3.5 19:25:20 10° N 19:29:27 54° ENE 19:33:33 10° SSE
USA 186 1.8 19:27:25 16° SE 19:29:31 45° ENE 19:32:15 10° N
Cosmos 1980 3.7 19:24:14 10° NW 19:29:55 73° NE 19:35:02 13° SE
Aureole 2 Rocket 3.6 19:27:16 10° NNW 19:30:37 29° NE 19:31:55 23° ENE
CZ-4B DEB 3.1 19:29:29 19° SE 19:31:20 42° ENE 19:34:20 10° N
Cosmos 1814 Rocket 4.0 19:26:27 10° NNW 19:31:39 63° NE 19:36:05 14° SE
NOSS 5 (C) 4.3 19:30:04 10° SW 19:33:07 55° SE 19:34:36 26° ENE
USA 229 DEB 4.3 19:26:31 10° WNW 19:33:25 58° SW 19:40:27 10° SSE
USA 229 4.3 19:26:38 10° WNW 19:33:32 58° SW 19:40:33 10° SSE
HJ-1C 4.0 19:31:19 10° S 19:34:39 58° WSW 19:38:01 10° NNW
Terra 3.8 19:34:23 12° NE 19:35:41 13° NE 19:37:57 10° N
SAR-Lupe-1 3.9 19:35:54 10° SSE 19:39:29 78° ENE 19:43:06 10° NNW
Cosmos 1892 Rocket 3.6 19:35:22 10° N 19:39:40 55° ENE 19:43:43 11° SSE
SJ-6B 4.2 19:36:18 10° S 19:40:03 41° W 19:43:45 10° NNW
Envisat 3.1 19:38:53 12° SE 19:43:33 55° ENE 19:48:32 10° NNW
H-2A R/B 3.8 19:43:03 16° NE 19:43:41 17° NE 19:46:24 10° N
SAR-Lupe-4 3.6 19:40:46 10° SSE 19:44:22 85° WSW 19:47:59 10° NNW
Cosmos 2151 Rocket 3.9 19:39:58 10° SSW 19:44:30 74° WNW 19:49:04 10° NNE
NOSS 3-4 (A) 3.8 19:38:03 10° W 19:44:33 74° NNW 19:50:02 17° ENE
NOSS 3-4 (C) 3.8 19:38:10 10° W 19:44:39 74° NNW 19:50:10 17° ENE
Okean 1 Rocket 3.1 19:40:35 10° S 19:44:59 58° E 19:49:25 10° NNE
NOSS 3-1 (A) 3.9 19:39:09 10° WNW 19:46:12 85° SSW 19:52:26 18° SE
Cosmos 1954 Rocket 4.0 19:41:09 10° S 19:46:14 57° ESE 19:51:25 10° NE
deb Kosmos-1763 4.2 19:43:55 10° SW 19:47:43 80° WNW 19:51:34 10° NNE
Cosmos 1709 Rocket 3.9 19:41:45 10° S 19:47:58 89° ESE 19:54:09 10° NNE
Cosmos 2074 Rocket 4.1 19:42:08 10° SSE 19:48:10 51° E 19:54:15 10° NNE
NOSS 2-2 (E) 3.9 19:43:45 10° SW 19:48:19 79° SSE 19:52:41 18° ENE
ERS-1 Rocket 3.4 19:45:24 21° ESE 19:48:26 44° ENE 19:53:13 10° N
CZ-4B DEB 4.5 19:45:54 16° SSE 19:48:40 67° ENE 19:52:16 10° NNW
Cosmos 1515 4.0 19:45:12 10° N 19:48:57 45° ENE 19:50:35 28° SE
Cosmos 2184 Rocket 4.1 19:45:14 10° SSE 19:51:17 52° E 19:57:18 10° NNE
Cosmos 1238 Rocket 4.3 19:48:28 10° NNW 19:51:18 29° W 19:53:57 10° SSW
USA 215 3.3 19:47:09 21° E 19:51:45 66° S 19:58:15 10° WSW
Cosmos 405 Rocket 2.7 19:48:00 10° NNW 19:52:08 74° ENE 19:55:33 14° SSE
ATLAS 2AS CENTAUR R/B 3.2 19:44:02 10° WNW 19:52:13 73° NNE 19:57:44 23° E
Cosmos 1025 Rocket 3.2 19:49:48 10° NNW 19:54:11 75° W 19:58:34 10° S
FENGYUN 3A 4.5 19:50:15 10° S 19:55:34 54° W 20:00:55 10° NNW
TSX-5 3.7 19:55:00 10° SSW 19:58:04 44° SE 19:58:28 42° ESE
Cosmos 1833 Rocket 3.8 19:52:47 10° W 19:58:06 40° NNW 20:03:25 10° NE
SPOT 5 3.7 19:57:09 27° E 19:58:48 34° NE 20:03:26 10° N
Geosat 4.4 19:53:54 10° NE 19:58:54 63° NW 20:03:53 10° WSW
Nadezhda 3 Rocket 3.9 19:53:50 10° NNW 19:59:59 67° ENE 20:06:08 10° SSE
CZ-2D R/B 3.7 19:56:46 10° S 20:00:34 63° WSW 20:04:23 10° NNW
ATLAS CENTAUR R/B 2.1 19:56:59 10° W 20:01:11 48° NNW 20:03:20 24° NE
Okean 1-7 Rocket 4.4 19:56:59 10° NNW 20:01:27 55° W 20:05:52 10° S
Cosmos 1939 Rocket 2.9 20:00:51 30° SE 20:02:37 58° ENE 20:06:35 10° N
GEOS 3 Rocket 4.4 20:01:57 28° ESE 20:02:48 30° SE 20:07:23 10° S
H-2A R/B 3.8 20:02:02 10° S 20:05:38 46° W 20:09:20 10° NNW
NOSS 3-1 (C) 4.1 19:58:38 10° WNW 20:05:40 69° SW 20:11:48 18° SE
H-2A R/B 3.2 20:05:00 25° ENE 20:06:22 27° NE 20:10:54 10° N
Cosmos 1536 2.6 20:03:39 10° S 20:07:38 74° E 20:11:39 10° NNE
Cosmos 1633 3.0 20:05:30 10° SSW 20:09:10 65° WNW 20:12:52 10° N
NOSS 2-2 (D) 3.9 20:04:46 10° WSW 20:09:19 88° SSE 20:12:53 23° ENE
COSMOS 2428 4.0 20:06:16 10° NW 20:11:30 39° WSW 20:16:43 10° S
Cosmos 1603 4.3 20:08:43 10° NW 20:14:09 44° NNE 20:16:22 31° E
Cosmos 1544 Rocket 4.4 20:16:09 31° ENE 20:16:09 31° ENE 20:19:02 10° NNE
Cosmos 2237 Rocket 2.4 20:09:53 10° NW 20:15:37 74° SW 20:19:36 20° SSE
Cosmos 1066 Rocket 4.2 20:09:57 10° NNW 20:15:43 66° ENE 20:19:01 25° SE
Cosmos 841 Rocket 3.4 20:13:33 10° NNW 20:18:45 80° NE 20:21:09 33° SE
Cosmos 1602 Rocket 3.7 20:14:56 10° N 20:19:16 52° ENE 20:20:06 45° ESE
Cosmos 2154 Rocket 4.2 20:14:16 10° SSE 20:20:19 48° E 20:26:21 10° NNE
YAOGAN 6 2.9 20:22:13 48° NE 20:22:13 48° NE 20:25:28 10° N
Cosmos 1023 Rocket 4.3 20:16:53 10° SSW 20:22:00 77° ESE 20:27:12 10° NE
YAOGAN 11 4.3 20:21:56 44° ESE 20:22:57 54° ENE 20:27:24 10° NNW
RESURS DK-1 4.2 20:20:11 10° W 20:23:46 27° NNW 20:26:40 14° NNE
Cosmos 1727 Rocket 4.5 20:18:32 10° N 20:24:32 41° ENE 20:26:14 34° E
Meteor 2-13 Rocket 4.4 20:18:43 10° S 20:24:39 58° E 20:30:39 10° NNE
Cosmos 1441 Rocket 3.1 20:21:03 10° NNW 20:25:01 78° ENE 20:25:56 51° SSE
Cosmos 1626 Rocket 3.6 20:21:07 10° N 20:25:33 59° ENE 20:26:26 48° ESE
NOSS 2-2 (C) 3.9 20:22:02 10° WSW 20:26:38 83° NNW 20:29:39 28° ENE
SL-08 RB Rocket 4.4 20:29:10 36° ENE 20:29:15 36° ENE 20:33:27 10° N
Cosmos 1741 Rocket 3.9 20:24:48 10° SSW 20:29:57 61° ESE 20:35:07 10° NE
SL-08 ROCKET BODY 4.4 20:25:00 10° SSW 20:31:13 89° WNW 20:37:28 10° NNE
Cosmos 2219 Rocket 3.2 20:26:44 10° NW 20:32:01 43° WSW 20:37:09 11° S
Cosmos 1763 Rocket 3.5 20:26:55 10° NW 20:32:03 78° WSW 20:34:33 31° SSE
ARGOS 3.4 20:32:29 41° E 20:33:45 50° ENE 20:38:58 10° NNW
Cosmos 1818 3.5 20:28:21 10° SW 20:33:49 76° SE 20:36:24 32° ENE
Cosmos 407 Rocket 4.1 20:28:36 10° SW 20:33:50 58° NW 20:39:09 10° NNE
Cosmos 332 Rocket 3.8 20:30:21 10° NNW 20:35:19 81° WSW 20:37:12 38° SSE
Cosmos 676 Rocket 4.3 20:33:20 10° SW 20:38:32 66° NW 20:43:48 10° NNE
Cosmos 1437 3.6 20:36:26 10° NNW 20:39:40 50° W 20:40:14 44° SW
Cosmos 2219 3.2 20:35:59 10° SSW 20:41:35 56° ESE 20:46:01 16° NE
Cosmos 836 Rocket 4.4 20:36:23 10° NNW 20:41:45 79° NE 20:43:12 49° SE
Cosmos 540 Rocket 3.4 20:39:32 10° NNW 20:44:40 67° NE 20:45:35 55° ESE
Resurs 01 Rocket 3.9 20:42:53 10° SW 20:46:28 24° W 20:50:04 10° NW
SPOT 1/Viking Rocket 3.7 20:46:01 48° E 20:46:32 50° ENE 20:51:33 10° NNW
Cosmos 371 Rocket 3.3 20:41:39 10° NNW 20:46:34 83° WSW 20:47:51 50° SSE
SL-16 R/B 2.2 20:43:33 10° NW 20:49:16 83° SW 20:51:08 45° SSE
MetOp-B 4.0 20:50:46 50° SE 20:52:12 77° ENE 20:57:35 10° NNW
Meteor 1-11 Rocket 4.5 20:46:41 10° SW 20:52:28 57° WNW 20:58:23 10° NNE
Cosmos 1140 Rocket 3.6 20:47:32 10° SW 20:52:42 74° NW 20:57:56 10° NNE
Cosmos 1455 Rocket 4.1 20:54:37 33° NNE 20:54:37 33° NNE 20:57:10 10° NNE
GENESIS II 4.4 20:49:34 10° WNW 20:53:36 67° SW 20:53:36 67° SW
Cosmos 962 Rocket 4.4 20:53:09 37° SSE 20:55:31 60° E 21:01:34 10° NNE
Cosmos 1943 3.7 20:51:14 10° NW 20:56:45 45° NNE 20:57:46 41° ENE
Landsat 7 4.5 20:57:29 40° NE 20:57:29 40° NE 21:01:29 10° N
Cosmos 614 Rocket 3.9 20:54:57 10° SW 21:00:02 79° WNW 21:05:10 10° NNE
USA 186 4.3 20:58:49 13° SW 21:00:19 18° W 21:02:26 10° NW
Helios 1B rocket 2.5 20:57:33 10° NNE 21:01:45 76° WNW 21:04:07 25° SSW
Cosmos 2333 Rocket 3.7 21:01:08 10° NW 21:06:13 34° WSW 21:10:20 15° SSW
Aureole 2 Rocket 3.5 21:02:43 10° NW 21:05:44 45° WNW 21:05:44 45° WNW
USA 32 4.3 21:02:42 10° NNW 21:07:56 68° W 21:10:19 32° SSW
Cosmos 1610 Rocket 4.5 21:01:48 10° SSW 21:08:01 80° WNW 21:14:13 10° NNE
Cosmos 2218 Rocket 4.5 21:09:01 41° ENE 21:09:01 41° ENE 21:13:59 10° NNE
NOAA 11 4.1 21:07:20 58° SSE 21:08:29 88° ENE 21:14:00 10° NNW
Cosmos 1833 4.4 21:03:20 10° SW 21:09:00 70° NW 21:14:40 10° NE
Terra 2.7 21:13:15 37° NNE 21:13:15 37° NNE 21:16:49 10° N
Cosmos 2082 Rocket 3.8 21:07:55 10° WNW 21:12:54 29° N 21:16:32 16° NE
H-2A R/B 2.8 21:20:10 44° N 21:20:10 44° N 21:23:17 10° NNW
Cosmos 1850 Rocket 4.2 21:15:29 10° SW 21:20:48 70° NW 21:26:12 10° NNE
Meteor 2-19 Rocket 4.3 21:22:30 65° E 21:22:30 65° E 21:28:37 10° NNE
Envisat 4.3 21:19:05 15° SSW 21:22:49 37° W 21:27:33 10° NNW
Meteor 2-15 4.4 21:18:31 10° NNW 21:24:38 63° ENE 21:24:51 63° E
ERS-1 Rocket 3.8 21:25:24 32° SSW 21:27:15 46° W 21:32:09 10° NNW
Meteor 1-12 Rocket 4.2 21:32:14 45° SSW 21:34:14 87° WNW 21:40:10 10° NNE
USA 215 3.2 21:34:29 62° SSE 21:35:14 67° S 21:41:46 10° W
Cosmos 783 Rocket 4.5 21:30:38 10° NW 21:35:42 78° W 21:35:42 78° W
NOSS 3-4 (A) 3.7 21:29:26 10° WNW 21:36:03 71° N 21:37:29 56° ENE
NOSS 3-4 (C) 3.7 21:29:33 10° WNW 21:36:11 71° NNE 21:37:36 56° ENE
SPOT 5 3.2 21:36:23 63° WSW 21:36:37 64° WSW 21:41:46 10° NNW
Cosmos 1241 Rocket 4.5 21:32:15 10° WNW 21:38:56 76° NNE 21:39:39 69° E
NOSS 2-2 (E) 4.4 21:34:21 10° W 21:39:18 64° N 21:40:06 58° NE
SL-8 Rocket 3.9 21:39:47 74° E 21:39:47 74° E 21:46:01 10° NNE
ATLAS CENTAUR R/B 2.7 21:36:44 10° WNW 21:39:38 36° NW 21:39:38 36° NW
GEOS 3 Rocket 4.2 21:43:05 46° SW 21:43:05 46° SW 21:46:43 10° SW
COSMOS 2406 4.2 21:37:07 10° NW 21:42:28 36° NNE 21:43:02 35° NE
Cosmos 304 Rocket 4.2 21:37:48 10° NW 21:41:49 61° NW 21:41:49 61° NW
Cosmos 1295 Rocket 4.4 21:42:16 64° SSW 21:43:22 90° SW 21:49:46 10° NNE
Cosmos 1833 Rocket 4.4 21:38:38 10° WNW 21:43:25 28° N 21:45:57 20° NE
ATLAS 2AS CENTAUR R/B 3.0 21:35:25 10° WNW 21:43:34 74° SW 21:45:11 59° SSE
H-2A R/B 2.2 21:45:38 79° NNW 21:45:38 79° NNW 21:50:46 10° NNW
Cosmos 1603 3.9 21:53:00 10° NW 21:58:16 68° W 21:58:16 68° W
Cosmos 2237 Rocket 4.3 21:54:42 10° NW 21:58:52 21° WSW 22:01:28 16° SW
Cosmos 2341 Rocket 4.3 21:56:25 27° SW 22:00:04 65° WNW 22:06:28 10° NNE
NOSS 2-2 (D) 4.4 21:55:27 10° W 22:00:19 63° N 22:00:19 63° N
Cosmos 1727 Rocket 4.3 22:04:07 10° NNW 22:10:21 61° W 22:11:00 58° WSW
Aureole 1 Rocket 4.2 22:05:32 10° NW 22:13:44 76° NE 22:13:50 76° ENE
ARGOS 4.0 22:14:00 44° WSW 22:14:07 44° W 22:19:20 10° NNW
Meteor 2-5 Rocket 4.3 22:09:55 10° NNW 22:14:05 51° N 22:14:05 51° N
Cosmos 1818 4.2 22:12:16 10° W 22:17:04 54° NW 22:17:04 54° NW
Cosmos 2219 3.9 22:20:17 10° WSW 22:25:54 52° NW 22:31:32 10° NE
SL-16 R/B 3.9 22:28:15 10° NW 22:32:44 24° WSW 22:33:02 24° WSW
Cosmos 2366 rocket 4.3 22:39:00 60° NNW 22:39:00 60° NNW 22:44:15 10° NNE
Cosmos 1943 4.0 22:35:29 10° NW 22:39:36 47° WNW 22:39:36 47° WNW
Terra 3.6 22:52:08 29° NW 22:52:08 29° NW 22:54:45 10° NNW
Cosmos 2123 Rocket 4.5 22:46:09 10° NNW 22:51:02 57° NNW 22:51:02 57° NNW
Cosmos 2082 Rocket 3.6 22:53:27 10° NW 22:58:23 32° NNE 22:58:23 32° NNE
H-2A R/B 4.1 23:26:15 23° WNW 23:26:15 23° WNW 23:29:46 10° NW
NOSS 3-4 (A) 4.5 23:20:30 10° WNW 23:24:55 44° WNW 23:24:55 44° WNW
NOSS 3-4 (C) 4.5 23:20:37 10° WNW 23:25:03 44° WNW 23:25:03 44° WNW
Cosmos 1833 Rocket 4.2 23:23:43 10° NW 23:27:38 31° N 23:27:38 31° N
ATLAS 2AS CENTAUR R/B 4.2 23:26:48 10° WNW 23:32:37 31° WSW 23:32:37 31° WSW
